period_start,C,m1,H,J0,J1,J2,J3,J4,J5,JA,JB,JC,JD,JJ,JK,JN,#
2018-01-22 00:03:21,0.03,2.36,0.00,25.42,26.57,29.68,14.00,47.72,1041.04,2027.99,2482.97,2492.97,2781.15,599.76,605.21,40.24,0000 0000 0000 0000 000000
2018-01-22 00:08:23,0.05,2.37,0.00,25.44,26.57,29.59,14.10,47.60,1041.04,2027.99,2482.08,2492.33,2781.00,600.09,605.50,40.29,0000 0000 0000 0000 000000
2018-01-22 00:13:24,0.03,2.37,0.00,25.41,26.56,29.61,13.99,47.63,1041.07,2027.99,2481.25,2492.01,2780.60,599.96,605.50,40.34,0000 0000 0000 0000 000000
2018-01-22 00:18:25,0.04,2.37,0.00,25.42,26.55,29.65,13.98,47.69,1041.09,2028.00,2480.49,2491.73,2780.01,599.94,605.42,40.39,0000 0000 0000 0000 000000
2018-01-22 00:23:27,0.08,2.37,0.00,25.41,26.55,29.61,13.99,47.70,1041.16,2028.00,2479.26,2490.86,2779.15,599.53,605.04,40.44,0000 0000 0000 0000 000000
2018-01-22 00:28:28,0.08,2.38,0.00,25.42,26.55,29.67,14.03,47.73,1041.25,2028.00,2477.62,2489.95,2777.98,599.69,605.16,40.49,0000 0000 0000 0000 000000
2018-01-22 00:33:29,0.08,2.38,0.00,25.39,26.55,29.63,14.04,47.73,1041.22,2028.00,2476.16,2489.08,2776.99,600.16,605.74,40.54,0000 0000 0000 0000 000000
2018-01-22 00:38:31,0.08,2.39,0.00,25.39,26.55,29.61,14.10,47.71,1041.21,2028.00,2474.92,2488.38,2776.13,600.38,605.92,40.59,0000 0000 0000 0000 000000
2018-01-22 00:43:32,0.04,2.39,0.00,25.41,26.54,29.63,14.03,47.73,1041.33,2028.00,2473.75,2487.98,2775.74,600.04,605.59,40.64,0000 0000 0000 0000 000000
2018-01-22 00:48:33,0.05,2.39,0.00,25.39,26.53,29.60,13.99,47.75,1041.18,2028.00,2472.83,2487.31,2775.05,599.98,605.46,40.69,0000 0000 0000 0000 000000
2018-01-22 00:53:34,0.04,2.40,0.00,25.38,26.52,29.61,14.08,47.66,1041.07,2028.00,2472.02,2486.95,2774.28,600.15,605.62,40.74,0000 0000 0000 0000 000000
2018-01-22 00:58:35,0.07,2.40,0.00,25.38,26.52,29.61,14.02,47.62,1041.10,2028.00,2471.12,2486.15,2773.44,599.98,605.49,40.80,0000 0000 0000 0000 000000
2018-01-22 01:03:37,0.08,2.40,0.00,25.39,26.52,29.59,14.03,47.68,1041.21,2028.00,2469.75,2485.55,2772.76,599.73,605.28,40.85,0000 0000 0000 0000 000000
2018-01-22 01:08:38,0.05,2.41,0.00,25.36,26.52,29.63,14.08,47.74,1041.22,2028.00,2468.43,2484.93,2772.02,600.09,605.76,40.90,0000 0000 0000 0000 000000
2018-01-22 01:13:39,0.07,2.41,0.00,25.34,26.50,29.62,14.02,47.82,1041.16,2028.00,2467.20,2484.10,2771.47,599.79,605.29,40.95,0000 0000 0000 0000 000000
2018-01-22 01:18:41,0.03,2.41,0.00,25.34,26.50,29.61,14.04,47.70,1041.10,2028.01,2466.20,2483.98,2771.00,600.07,605.68,41.00,0000 0000 0000 0000 000000
2018-01-22 01:23:42,0.05,2.41,0.00,25.34,26.50,29.55,14.03,47.78,1041.15,2028.03,2465.51,2483.54,2770.80,599.96,605.67,41.05,0000 0000 0000 0000 000000
2018-01-22 01:28:44,0.03,2.42,0.00,25.32,26.50,29.59,14.03,47.77,1041.26,2028.01,2464.94,2483.03,2770.06,599.93,605.63,41.10,0000 0000 0000 0000 000000
2018-01-22 01:33:45,0.02,2.42,0.00,25.31,26.50,29.61,14.14,47.76,1041.36,2028.00,2464.12,2482.99,2769.98,599.92,605.73,41.15,0000 0000 0000 0000 000000
2018-01-22 01:38:46,0.07,2.42,0.00,25.31,26.49,29.60,14.11,47.70,1041.47,2028.06,2463.32,2482.52,2769.56,600.18,606.11,41.20,0000 0000 0000 0000 000000
2018-01-22 01:43:48,0.01,2.42,0.00,25.30,26.47,29.55,14.03,47.73,1041.40,2028.08,2462.96,2482.02,2768.99,599.82,605.73,41.25,0000 0000 0000 0000 000000
2018-01-22 01:48:49,0.04,2.42,0.00,25.29,26.47,29.55,13.98,47.58,1041.49,2028.03,2462.25,2481.96,2768.17,599.65,605.52,41.30,0000 0000 0000 0000 000000
2018-01-22 01:53:50,0.05,2.43,0.00,25.29,26.47,29.52,14.08,47.57,1041.50,2028.00,2461.64,2481.23,2767.70,600.43,606.34,41.35,0000 0000 0000 0000 000000
2018-01-22 01:58:52,0.02,2.43,0.00,25.29,26.47,29.54,14.10,47.51,1041.52,2028.00,2460.83,2480.98,2767.01,600.08,605.98,41.40,0000 0000 0000 0000 000000
2018-01-22 02:03:53,0.08,2.43,0.00,25.25,26.46,29.49,14.08,47.52,1041.52,2028.00,2459.79,2480.32,2766.20,600.35,606.39,41.45,0000 0000 0000 0000 000000
2018-01-22 02:08:54,0.05,2.43,0.00,25.24,26.45,29.51,14.10,47.56,1041.52,2028.00,2458.61,2479.88,2765.66,600.23,606.28,41.50,0000 0000 0000 0000 000000
2018-01-22 02:13:55,0.06,2.44,0.00,25.24,26.45,29.51,14.04,47.50,1041.52,2028.00,2457.56,2479.08,2765.02,599.94,605.98,41.55,0000 0000 0000 0000 000000
2018-01-22 02:18:56,0.02,2.44,0.00,25.24,26.43,29.50,14.04,47.68,1041.52,2028.00,2456.68,2478.99,2764.97,599.78,605.79,41.60,0000 0000 0000 0000 000000
2018-01-22 02:23:57,0.05,2.44,0.00,25.22,26.42,29.47,14.09,47.62,1041.52,2028.01,2455.97,2478.50,2764.45,599.83,605.88,41.65,0000 0000 0000 0000 000000
2018-01-22 02:28:58,0.03,2.44,0.00,25.23,26.42,29.56,14.05,47.69,1041.52,2028.03,2455.14,2478.02,2764.01,599.53,605.61,41.70,0000 0000 0000 0000 000000
2018-01-22 02:33:59,0.02,2.44,0.00,25.24,26.42,29.50,14.05,47.71,1041.52,2028.04,2454.56,2477.99,2763.88,600.05,606.07,41.75,0000 0000 0000 0000 000000
2018-01-22 02:39:01,0.04,2.45,0.00,25.23,26.40,29.50,14.05,47.74,1041.52,2028.05,2453.96,2477.74,2763.16,599.87,605.96,41.80,0000 0000 0000 0000 000000
2018-01-22 02:44:02,0.06,2.45,0.00,25.22,26.40,29.46,14.03,47.77,1041.53,2028.18,2453.11,2477.10,2763.01,599.65,605.80,41.86,0000 0000 0000 0000 000000
2018-01-22 02:49:03,0.04,2.45,0.00,25.22,26.40,29.43,14.02,47.59,1041.54,2028.30,2452.38,2476.99,2762.88,599.62,605.71,41.91,0000 0000 0000 0000 000000
2018-01-22 02:54:05,0.06,2.45,0.00,25.21,26.39,29.43,14.06,47.68,1041.57,2028.52,2451.79,2476.76,2762.08,599.98,606.12,41.96,0000 0000 0000 0000 000000
2018-01-22 02:59:06,0.06,2.46,0.00,25.20,26.37,29.47,14.09,47.80,1041.81,2028.75,2451.04,2476.11,2761.99,600.00,606.36,42.01,0000 0000 0000 0000 000000
2018-01-22 03:04:08,0.03,2.46,0.00,25.20,26.37,29.45,14.08,47.80,1041.98,2028.76,2450.56,2476.00,2761.39,600.10,606.54,42.06,0000 0000 0000 0000 000000
2018-01-22 03:09:09,-0.00,2.46,0.00,25.18,26.37,29.42,14.05,47.72,1041.92,2028.59,2449.96,2475.88,2761.00,600.16,606.56,42.11,0000 0000 0000 0000 000000
2018-01-22 03:14:11,0.04,2.46,0.00,25.16,26.36,29.42,13.99,47.67,1041.87,2028.30,2449.12,2475.09,2760.27,599.70,606.12,42.16,0000 0000 0000 0000 000000
2018-01-22 03:19:12,0.07,2.46,0.00,25.15,26.35,29.39,14.06,47.68,1041.80,2028.25,2448.06,2474.57,2759.48,600.11,606.60,42.21,0000 0000 0000 0000 000000
2018-01-22 03:24:14,0.05,2.47,0.00,25.14,26.35,29.41,14.07,47.73,1041.63,2028.43,2447.02,2474.01,2759.00,600.09,606.41,42.26,0000 0000 0000 0000 000000
2018-01-22 03:29:15,0.10,2.47,0.00,25.12,26.34,29.38,14.06,47.73,1041.55,2028.63,2445.93,2473.63,2758.44,599.90,606.31,42.31,0000 0000 0000 0000 000000
2018-01-22 03:34:16,0.06,2.48,0.00,25.12,26.32,29.36,14.09,47.81,1041.54,2028.87,2444.84,2473.02,2758.01,600.06,606.41,42.36,0000 0000 0000 0000 000000
2018-01-22 03:39:18,0.04,2.48,0.00,25.14,26.32,29.38,14.12,47.87,1041.55,2028.96,2444.03,2472.82,2757.50,599.86,606.32,42.41,0000 0000 0000 0000 000000
2018-01-22 03:44:19,0.05,2.48,0.00,25.11,26.32,29.39,14.09,47.82,1041.55,2028.94,2443.30,2472.08,2757.00,600.05,606.27,42.46,0000 0000 0000 0000 000000
2018-01-22 03:49:20,0.05,2.48,0.00,25.10,26.30,29.39,14.09,47.77,1041.57,2028.96,2442.45,2471.77,2756.34,600.48,606.76,42.51,0000 0000 0000 0000 000000
2018-01-22 03:54:21,0.10,2.49,0.00,25.13,26.30,29.38,14.01,47.63,1041.55,2028.96,2440.84,2470.75,2755.12,599.63,605.92,42.56,0000 0000 0000 0000 000000
2018-01-22 03:59:23,0.07,2.49,0.00,25.11,26.29,29.37,14.02,47.76,1041.55,2028.95,2439.19,2469.89,2754.12,600.24,606.60,42.61,0000 0000 0000 0000 000000
2018-01-22 04:04:24,0.07,2.50,0.00,25.09,26.28,29.35,14.02,47.79,1041.67,2028.97,2437.93,2469.07,2753.40,599.73,606.12,42.66,0000 0000 0000 0000 000000
2018-01-22 04:09:25,0.03,2.50,0.00,25.08,26.27,29.38,14.04,47.75,1041.72,2028.98,2437.06,2468.90,2752.95,599.83,606.27,42.72,0000 0000 0000 0000 000000
2018-01-22 04:14:26,0.07,2.50,0.00,25.05,26.27,29.32,14.09,47.81,1041.56,2028.95,2436.26,2468.12,2752.11,599.93,606.34,42.77,0000 0000 0000 0000 000000
2018-01-22 04:19:27,0.06,2.51,0.00,25.03,26.25,29.32,14.02,47.62,1041.53,2028.93,2435.29,2467.70,2751.25,599.49,605.97,42.82,0000 0000 0000 0000 000000
2018-01-22 04:24:29,0.04,2.51,0.00,25.03,26.25,29.31,14.06,47.67,1041.53,2028.87,2434.31,2467.02,2750.67,599.90,606.44,42.87,0000 0000 0000 0000 000000
2018-01-22 04:29:30,0.07,2.51,0.00,25.04,26.24,29.31,14.08,47.62,1041.53,2028.80,2432.89,2466.22,2749.86,600.34,606.81,42.92,0000 0000 0000 0000 000000
2018-01-22 04:34:31,0.09,2.51,0.00,25.01,26.22,29.32,14.01,47.66,1041.52,2028.74,2431.60,2465.58,2749.06,599.41,606.00,42.97,0000 0000 0000 0000 000000
2018-01-22 04:39:33,0.06,2.52,0.00,25.00,26.22,29.30,14.05,47.58,1041.52,2028.91,2430.47,2464.96,2748.22,599.90,606.43,43.02,0000 0000 0000 0000 000000
2018-01-22 04:44:34,0.09,2.52,0.00,25.01,26.20,29.26,14.13,47.58,1041.54,2028.96,2429.09,2464.14,2747.42,599.99,606.53,43.07,0000 0000 0000 0000 000000
2018-01-22 04:49:35,0.09,2.53,0.00,24.99,26.20,29.33,14.11,47.57,1041.60,2028.97,2427.65,2463.42,2746.69,600.29,606.90,43.12,0000 0000 0000 0000 000000
2018-01-22 04:54:36,0.06,2.53,0.00,24.96,26.19,29.24,14.05,47.64,1041.91,2028.98,2426.12,2462.74,2746.02,599.94,606.82,43.17,0000 0000 0000 0000 000000
2018-01-22 04:59:37,0.07,2.54,0.00,24.97,26.17,29.24,14.10,47.78,1041.96,2028.99,2424.80,2462.03,2745.38,599.84,606.64,43.22,0000 0000 0000 0000 000000
2018-01-22 05:04:38,0.05,2.54,0.00,24.94,26.17,29.23,14.09,47.81,1041.93,2028.99,2423.79,2461.57,2744.91,600.28,607.18,43.27,0000 0000 0000 0000 000000
2018-01-22 05:09:40,0.05,2.54,0.00,24.95,26.15,29.20,14.09,47.85,1042.00,2028.99,2422.83,2461.01,2744.06,600.16,607.09,43.32,0000 0000 0000 0000 000000
2018-01-22 05:14:41,0.08,2.55,0.00,24.95,26.15,29.20,14.09,47.89,1042.01,2028.99,2421.74,2460.30,2743.30,599.99,606.90,43.37,0000 0000 0000 0000 000000
2018-01-22 05:19:42,0.04,2.55,0.00,24.93,26.14,29.21,14.13,47.87,1041.99,2029.00,2420.71,2459.94,2742.67,599.75,606.87,43.42,0000 0000 0000 0000 000000
2018-01-22 05:24:44,0.07,2.55,0.00,24.93,26.12,29.20,14.08,47.84,1041.97,2029.00,2419.56,2459.11,2741.86,599.70,606.54,43.47,0000 0000 0000 0000 000000
2018-01-22 05:29:45,0.07,2.55,0.00,24.93,26.12,29.19,14.08,47.78,1041.99,2029.00,2418.35,2458.54,2741.02,600.22,607.16,43.52,0000 0000 0000 0000 000000
2018-01-22 05:34:47,0.05,2.56,0.00,24.89,26.11,29.16,14.04,47.73,1042.01,2029.00,2417.14,2457.98,2740.17,600.18,607.20,43.57,0000 0000 0000 0000 000000
2018-01-22 05:39:48,0.07,2.56,0.00,24.89,26.10,29.21,14.12,47.74,1042.00,2029.01,2415.96,2457.32,2739.68,600.24,607.19,43.62,0000 0000 0000 0000 000000
2018-01-22 05:44:49,0.07,2.57,0.00,24.88,26.09,29.16,14.07,47.87,1041.99,2029.01,2414.49,2456.65,2738.86,599.78,606.87,43.67,0000 0000 0000 0000 000000
2018-01-22 05:49:51,0.06,2.57,0.00,24.86,26.07,29.16,14.01,47.72,1042.01,2029.01,2412.84,2455.99,2738.06,599.66,606.81,43.72,0000 0000 0000 0000 000000
2018-01-22 05:54:52,0.09,2.57,0.00,24.86,26.07,29.10,14.12,47.77,1042.01,2029.04,2411.52,2455.27,2737.32,600.65,607.68,43.78,0000 0000 0000 0000 000000
2018-01-22 05:59:53,0.04,2.58,0.00,24.86,26.05,29.15,14.10,47.72,1042.01,2029.07,2410.54,2454.91,2736.68,600.52,607.66,43.83,0000 0000 0000 0000 000000
2018-01-22 06:04:55,0.06,2.58,0.00,24.85,26.05,29.10,14.14,47.71,1042.01,2029.04,2409.48,2454.13,2735.99,600.18,607.28,43.88,0000 0000 0000 0000 000000
2018-01-22 06:09:56,0.08,2.58,0.00,24.86,26.04,29.10,14.07,47.68,1042.00,2029.13,2408.09,2453.65,2735.17,599.65,606.83,43.93,0000 0000 0000 0000 000000
2018-01-22 06:14:57,0.09,2.59,0.00,24.84,26.02,29.08,14.11,47.66,1042.01,2029.20,2406.47,2452.96,2734.40,600.31,607.33,43.98,0000 0000 0000 0000 000000
2018-01-22 06:19:59,0.11,2.59,0.00,24.80,26.02,29.06,14.07,47.85,1042.00,2029.50,2404.70,2452.13,2733.59,599.75,606.98,44.03,0000 0000 0000 0000 000000
2018-01-22 06:25:00,0.11,2.60,0.00,24.81,26.00,29.04,14.08,47.96,1042.01,2029.59,2402.90,2451.20,2732.63,600.01,607.21,44.08,0000 0000 0000 0000 000000
2018-01-22 06:30:01,0.11,2.61,0.00,24.77,26.00,29.09,14.09,47.88,1042.01,2029.80,2401.10,2450.34,2731.67,599.98,607.31,44.13,0000 0000 0000 0000 000000
2018-01-22 06:35:02,0.10,2.61,0.00,24.75,25.99,29.03,14.12,47.92,1042.01,2029.87,2399.54,2449.61,2730.70,599.74,607.12,44.18,0000 0000 0000 0000 000000
2018-01-22 06:40:03,0.08,2.62,0.00,24.77,25.97,29.06,14.06,47.84,1042.01,2029.94,2397.84,2448.77,2729.58,600.07,607.29,44.23,0000 0000 0000 0000 000000
2018-01-22 06:45:05,0.08,2.62,0.00,24.74,25.97,29.06,14.14,47.86,1042.01,2029.93,2396.25,2447.88,2728.51,600.76,608.13,44.28,0000 0000 0000 0000 000000
2018-01-22 06:50:06,0.12,2.63,0.00,24.72,25.95,29.05,14.08,47.78,1042.01,2029.96,2394.28,2446.87,2727.42,599.86,607.20,44.33,0000 0000 0000 0000 000000
2018-01-22 06:55:08,0.10,2.63,0.00,24.71,25.95,29.01,14.08,47.78,1042.01,2029.98,2392.27,2445.92,2726.39,599.74,606.97,44.38,0000 0000 0000 0000 000000
2018-01-22 07:00:09,0.09,2.64,0.00,24.67,25.93,29.02,14.10,47.92,1041.99,2029.98,2390.53,2445.05,2725.45,599.96,607.43,44.43,0000 0000 0000 0000 000000
2018-01-22 07:05:10,0.08,2.64,0.00,24.66,25.92,28.98,14.11,47.77,1041.97,2029.99,2388.89,2444.28,2724.73,600.15,607.67,44.48,0000 0000 0000 0000 000000
2018-01-22 07:10:11,0.09,2.65,0.00,24.65,25.91,28.97,14.04,47.75,1041.98,2029.99,2387.34,2443.50,2723.77,599.54,606.99,44.53,0000 0000 0000 0000 000000
2018-01-22 07:15:13,0.08,2.65,0.00,24.63,25.90,28.92,14.14,47.77,1041.96,2029.99,2385.73,2442.78,2722.86,600.09,607.72,44.58,0000 0000 0000 0000 000000
2018-01-22 07:20:14,0.08,2.66,0.00,24.65,25.89,28.94,14.07,47.82,1041.97,2029.99,2384.18,2441.92,2721.85,599.94,607.46,44.63,0000 0000 0000 0000 000000
2018-01-22 07:25:15,0.09,2.66,0.00,24.60,25.87,28.93,14.09,47.79,1041.95,2030.00,2382.54,2441.04,2720.83,600.03,607.57,44.68,0000 0000 0000 0000 000000
2018-01-22 07:30:17,0.11,2.67,0.00,24.60,25.87,28.88,14.08,47.74,1041.85,2030.01,2380.63,2440.05,2719.69,600.24,607.93,44.74,0000 0000 0000 0000 000000
2018-01-22 07:35:18,0.12,2.67,0.00,24.62,25.85,28.91,14.11,47.72,1041.97,2030.03,2378.71,2438.87,2718.30,599.97,607.51,44.79,0000 0000 0000 0000 000000
2018-01-22 07:40:19,0.15,2.68,0.00,24.59,25.85,28.89,14.09,47.68,1042.01,2030.01,2376.54,2437.54,2716.61,599.50,607.16,44.84,0000 0000 0000 0000 000000
2018-01-22 07:45:21,0.15,2.69,0.00,24.58,25.83,28.91,14.12,47.72,1042.01,2030.02,2374.29,2436.05,2714.78,599.89,607.48,44.89,0000 0000 0000 0000 000000
2018-01-22 07:50:22,0.17,2.70,0.00,24.56,25.82,28.86,14.06,47.72,1042.01,2030.01,2371.65,2434.42,2712.94,600.19,607.74,44.94,0000 0000 0000 0000 000000
2018-01-22 07:55:23,0.13,2.70,0.00,24.55,25.80,28.86,14.14,47.72,1042.01,2030.01,2369.22,2432.92,2711.27,600.24,607.90,44.99,0000 0000 0000 0000 000000
2018-01-22 08:00:24,0.10,2.71,0.00,24.59,25.80,28.87,14.10,47.63,1042.02,2030.01,2367.56,2431.95,2710.04,600.08,607.68,45.04,0000 0000 0000 0000 000000
2018-01-22 08:05:26,0.09,2.72,0.00,24.55,25.78,28.87,14.07,47.73,1042.01,2030.01,2366.13,2431.08,2709.02,599.82,607.60,45.09,0000 0000 0000 0000 000000
2018-01-22 08:10:27,0.10,2.72,0.00,24.53,25.77,28.87,14.16,47.73,1042.02,2030.03,2364.56,2430.19,2708.09,600.51,608.23,45.14,0000 0000 0000 0000 000000
2018-01-22 08:15:28,0.10,2.72,0.00,24.52,25.75,28.89,14.08,47.67,1042.03,2030.02,2362.81,2429.22,2707.12,600.26,608.16,45.19,0000 0000 0000 0000 000000
2018-01-22 08:20:30,0.10,2.73,0.00,24.50,25.75,28.84,14.13,47.85,1042.01,2030.10,2361.25,2428.45,2706.26,599.96,607.89,45.24,0000 0000 0000 0000 000000
2018-01-22 08:25:31,0.12,2.74,0.00,24.51,25.73,28.81,14.10,47.91,1042.01,2030.40,2359.74,2427.68,2705.34,599.81,607.65,45.29,0000 0000 0000 0000 000000
2018-01-22 08:30:32,0.12,2.74,0.00,24.50,25.72,28.83,14.09,47.73,1042.02,2030.58,2358.07,2426.58,2704.02,599.85,607.60,45.34,0000 0000 0000 0000 000000
2018-01-22 08:35:33,0.14,2.75,0.00,24.51,25.71,28.79,14.14,47.75,1042.01,2030.68,2356.21,2425.47,2702.71,600.00,607.80,45.39,0000 0000 0000 0000 000000
2018-01-22 08:40:35,0.11,2.75,0.00,24.48,25.70,28.81,14.05,47.67,1042.01,2030.75,2354.46,2424.43,2701.54,599.88,607.75,45.44,0000 0000 0000 0000 000000
2018-01-22 08:45:36,0.10,2.76,0.00,24.47,25.69,28.80,14.11,47.75,1042.01,2030.91,2352.88,2423.61,2700.53,600.03,607.93,45.49,0000 0000 0000 0000 000000
2018-01-22 08:50:37,0.09,2.76,0.00,24.50,25.67,28.78,14.11,47.67,1042.01,2030.93,2351.50,2422.63,2699.38,599.75,607.61,45.54,0000 0000 0000 0000 000000
2018-01-22 08:55:38,0.07,2.77,0.00,24.48,25.67,28.78,14.10,47.61,1042.02,2030.88,2350.09,2421.78,2698.22,599.82,607.71,45.59,0000 0000 0000 0000 000000
2018-01-22 09:00:40,0.08,2.77,0.00,24.48,25.65,28.78,14.07,47.65,1042.05,2030.86,2348.66,2420.99,2697.20,599.88,607.79,45.64,0000 0000 0000 0000 000000
2018-01-22 09:05:41,0.09,2.78,0.00,24.45,25.65,28.73,14.07,47.67,1042.11,2030.87,2347.15,2420.09,2696.22,599.68,607.70,45.70,0000 0000 0000 0000 000000
2018-01-22 09:10:42,0.11,2.78,0.00,24.44,25.63,28.76,14.05,47.73,1042.07,2030.94,2345.59,2419.20,2695.28,599.66,607.62,45.75,0000 0000 0000 0000 000000
2018-01-22 09:15:43,0.10,2.79,0.00,24.45,25.62,28.72,14.12,47.67,1042.10,2030.97,2343.85,2418.42,2694.45,600.32,608.32,45.80,0000 0000 0000 0000 000000
2018-01-22 09:20:45,0.10,2.79,0.00,24.43,25.61,28.75,14.07,47.72,1042.12,2030.98,2342.01,2417.41,2693.31,599.68,607.72,45.85,0000 0000 0000 0000 000000
2018-01-22 09:25:46,0.10,2.80,0.00,24.42,25.60,28.74,14.11,47.76,1042.10,2030.99,2340.23,2416.44,2692.24,599.82,607.68,45.90,0000 0000 0000 0000 000000
2018-01-22 09:30:47,0.10,2.81,0.00,24.40,25.60,28.73,14.01,47.73,1042.11,2030.99,2338.50,2415.53,2691.19,599.74,607.79,45.95,0000 0000 0000 0000 000000
2018-01-22 09:35:48,0.08,2.81,0.00,24.41,25.58,28.69,14.08,47.79,1042.06,2030.99,2337.09,2414.67,2690.00,599.42,607.41,46.00,0000 0000 0000 0000 000000
2018-01-22 09:40:50,0.13,2.82,0.00,24.41,25.57,28.71,14.11,47.72,1042.14,2030.99,2335.31,2413.45,2688.62,599.87,608.06,46.05,0000 0000 0000 0000 000000
2018-01-22 09:45:51,0.10,2.82,0.00,24.39,25.57,28.71,14.17,47.82,1042.46,2030.99,2333.70,2412.48,2687.46,600.08,608.41,46.10,0000 0000 0000 0000 000000
2018-01-22 09:50:52,0.07,2.83,0.00,24.38,25.55,28.73,14.17,47.83,1042.48,2030.99,2332.34,2411.73,2686.60,600.14,608.43,46.15,0000 0000 0000 0000 000000
2018-01-22 09:55:53,0.09,2.83,0.00,24.35,25.55,28.72,14.09,47.76,1042.30,2030.99,2330.80,2410.86,2685.65,600.29,608.52,46.20,0000 0000 0000 0000 000000
2018-01-22 10:00:55,0.08,2.84,0.00,24.34,25.54,28.70,14.12,47.78,1042.19,2030.99,2329.34,2410.02,2684.61,600.22,608.58,46.25,0000 0000 0000 0000 000000
2018-01-22 10:05:56,0.10,2.84,0.00,24.33,25.52,28.70,14.13,47.89,1042.04,2031.00,2327.74,2409.15,2683.70,600.05,608.26,46.30,0000 0000 0000 0000 000000
2018-01-22 10:10:57,0.10,2.85,0.00,24.30,25.52,28.70,14.08,47.84,1042.31,2031.00,2326.08,2408.27,2682.66,599.71,608.29,46.35,0000 0000 0000 0000 000000
2018-01-22 10:15:59,0.09,2.85,0.00,24.30,25.50,28.68,14.17,47.81,1042.50,2031.01,2324.55,2407.47,2681.70,600.00,608.54,46.40,0000 0000 0000 0000 000000
2018-01-22 10:21:00,0.09,2.86,0.00,24.26,25.50,28.66,14.13,47.92,1042.50,2031.03,2322.93,2406.66,2680.80,600.04,608.65,46.45,0000 0000 0000 0000 000000
2018-01-22 10:26:01,0.08,2.86,0.00,24.28,25.49,28.60,14.08,47.86,1042.50,2031.02,2321.37,2405.81,2679.82,600.30,608.83,46.50,0000 0000 0000 0000 000000
2018-01-22 10:31:02,0.09,2.87,0.00,24.26,25.47,28.64,14.11,47.78,1042.51,2031.07,2319.79,2405.02,2678.91,600.33,608.91,46.55,0000 0000 0000 0000 000000
2018-01-22 10:36:03,0.12,2.87,0.00,24.26,25.47,28.63,14.12,47.90,1042.51,2031.37,2318.37,2404.20,2678.05,599.94,608.60,46.60,0000 0000 0000 0000 000000
2018-01-22 10:41:05,0.08,2.88,0.00,24.26,25.46,28.63,14.15,47.81,1042.50,2031.49,2316.98,2403.67,2677.16,600.16,608.80,46.66,0000 0000 0000 0000 000000
2018-01-22 10:46:06,0.10,2.88,0.00,24.25,25.45,28.57,14.16,47.85,1042.50,2031.58,2315.40,2402.88,2676.37,600.09,608.74,46.71,0000 0000 0000 0000 000000
2018-01-22 10:51:08,0.12,2.89,0.00,24.26,25.45,28.55,14.04,47.81,1042.50,2031.86,2313.72,2402.03,2675.44,599.65,608.32,46.76,0000 0000 0000 0000 000000
2018-01-22 10:56:09,0.10,2.89,0.00,24.22,25.43,28.59,14.09,47.88,1042.50,2031.95,2312.12,2401.18,2674.49,599.91,608.64,46.81,0000 0000 0000 0000 000000
2018-01-22 11:01:10,0.10,2.90,0.00,24.22,25.42,28.54,14.15,47.86,1042.50,2031.96,2310.48,2400.30,2673.31,599.89,608.58,46.86,0000 0000 0000 0000 000000
2018-01-22 11:06:12,0.12,2.90,0.00,24.19,25.42,28.55,14.19,47.97,1042.50,2031.94,2308.72,2399.21,2671.85,600.09,608.82,46.91,0000 0000 0000 0000 000000
2018-01-22 11:11:13,0.10,2.91,0.00,24.21,25.40,28.50,14.18,47.89,1042.50,2031.89,2307.06,2398.17,2670.55,599.93,608.63,46.96,0000 0000 0000 0000 000000
2018-01-22 11:16:14,0.11,2.92,0.00,24.18,25.39,28.50,14.10,47.88,1042.50,2031.87,2305.28,2397.14,2669.29,600.06,608.84,47.01,0000 0000 0000 0000 000000
2018-01-22 11:21:16,0.12,2.92,0.00,24.18,25.37,28.52,14.06,47.88,1042.50,2031.90,2303.40,2396.02,2667.91,599.87,608.66,47.06,0000 0000 0000 0000 000000
2018-01-22 11:26:17,0.14,2.93,0.00,24.17,25.37,28.57,14.15,47.82,1042.50,2031.94,2301.54,2394.82,2666.54,599.99,608.82,47.11,0000 0000 0000 0000 000000
2018-01-22 11:31:18,0.13,2.94,0.00,24.14,25.35,28.49,14.12,47.80,1042.50,2031.95,2299.56,2393.63,2665.15,599.93,608.81,47.16,0000 0000 0000 0000 000000
2018-01-22 11:36:20,0.13,2.94,0.00,24.14,25.34,28.45,14.13,47.76,1042.51,2031.96,2297.54,2392.44,2663.70,599.84,608.72,47.21,0000 0000 0000 0000 000000
2018-01-22 11:41:21,0.11,2.95,0.00,24.10,25.32,28.47,14.14,47.68,1042.50,2031.97,2295.60,2391.22,2662.36,600.00,608.95,47.26,0000 0000 0000 0000 000000
2018-01-22 11:46:22,0.17,2.96,0.00,24.13,25.31,28.51,14.20,47.79,1042.50,2031.98,2293.40,2389.78,2660.73,600.31,609.17,47.31,0000 0000 0000 0000 000000
2018-01-22 11:51:23,0.20,2.97,0.00,24.11,25.30,28.52,14.20,47.86,1042.56,2031.98,2290.50,2387.99,2658.69,600.15,609.15,47.36,0000 0000 0000 0000 000000
2018-01-22 11:56:24,0.21,2.98,0.00,24.11,25.28,28.49,14.15,47.74,1042.57,2031.98,2287.26,2385.95,2656.41,600.12,609.01,47.41,0000 0000 0000 0000 000000
2018-01-22 12:01:25,0.15,2.99,0.00,24.08,25.27,28.49,14.06,47.76,1042.53,2031.97,2284.77,2384.44,2654.62,599.75,608.76,47.46,0000 0000 0000 0000 000000
2018-01-22 12:06:27,0.18,2.99,0.00,24.07,25.26,28.46,14.14,47.86,1042.55,2031.98,2282.31,2382.83,2652.82,600.14,609.18,47.52,0000 0000 0000 0000 000000
2018-01-22 12:11:28,0.18,3.00,0.00,24.07,25.25,28.43,14.11,47.78,1042.52,2031.99,2279.70,2381.22,2651.01,600.06,609.11,47.57,0000 0000 0000 0000 000000
2018-01-22 12:16:29,0.34,3.02,0.00,24.03,25.24,28.44,14.12,47.75,1042.53,2031.99,2275.13,2378.33,2647.79,600.11,609.22,47.62,0000 0000 0000 0000 000000
2018-01-22 12:21:31,0.37,3.04,0.00,24.06,25.22,28.39,14.16,47.72,1042.59,2031.99,2269.62,2374.85,2643.88,600.25,609.34,47.67,0000 0000 0000 0000 000000
2018-01-22 12:26:32,0.40,3.06,0.00,24.04,25.22,28.43,14.08,47.77,1042.63,2031.99,2263.71,2371.09,2639.71,600.06,609.06,47.72,0000 0000 0000 0000 000000
2018-01-22 12:31:33,0.35,3.08,0.00,24.05,25.20,28.41,14.16,47.77,1042.71,2031.99,2258.39,2367.76,2635.93,599.93,609.13,47.77,0000 0000 0000 0000 000000
2018-01-22 12:36:35,0.28,3.09,0.00,24.02,25.20,28.35,14.14,47.93,1042.59,2031.99,2254.03,2365.12,2632.83,599.95,609.11,47.82,0000 0000 0000 0000 000000
2018-01-22 12:41:36,0.18,3.10,0.00,24.04,25.18,28.36,14.11,47.86,1042.54,2032.01,2251.09,2363.10,2630.69,599.91,608.99,47.87,0000 0000 0000 0000 000000
2018-01-22 12:46:37,0.16,3.11,0.00,24.03,25.17,28.39,14.12,47.77,1042.57,2032.00,2248.88,2361.60,2628.99,600.17,609.34,47.92,0000 0000 0000 0000 000000
2018-01-22 12:51:38,0.12,3.12,0.00,24.04,25.17,28.40,14.17,47.77,1042.58,2032.00,2247.05,2360.48,2627.68,600.13,609.18,47.97,0000 0000 0000 0000 000000
2018-01-22 12:56:40,0.11,3.12,0.00,24.01,25.15,28.39,14.09,47.77,1042.62,2032.00,2245.28,2359.37,2626.40,599.97,609.17,48.02,0000 0000 0000 0000 000000